Zurück zum Katalog

ARIANE 5 R/B

AktivMEO
NORAD 43568·ROCKET BODY·🇫🇷 France

Gestartet Jul 25, 2018 von Guiana Space Centre

Loading…

Nächste Überflüge (nächste 24 Stunden)

TLE

AktuellSource: Space-Track

Epoche: Sep 13, 2026, 01:37 UTC

1 43568U 18060E   26256.06762898 -.00000099  00000-0  00000-0 0  9997
2 43568  56.9490 336.3851 0005041 263.4778  96.5194  1.73227707 51508

Verfolge ARIANE 5 R/B in Echtzeit mit AllMySat

Download on the App Store